Temperature
14 14 14 14 14 14 13 13 13 13 13 13 13 13 12 12 12 12 12 12 12 12 12 12 12 12 12 12 12 12 12 12 12 12 12 12 12 12 12 12 12 12 12
14 14 14 14 13 13 13 13 13 13 13 13 13 12 12 12 12 12 12 12 12 12 12 12 12 12 12 12 12 12 12 12 11 11 11 12 12 12 12 12 12 12 11
14 14 13 13 13 13 13 13 13 13 13 13 12 12 12 12 12 12 12 12 12 12 12 12 12 12 12 12 12 12 11 11 11 11 11 11 11 11 11 11 11 11 11
13 13 13 13 13 13 13 13 13 13 13 12 12 12 12 12 12 12 12 12 12 12 12 12 11 11 11 11 11 11 11 11 11 11 11 11 11 11 11 11 11 11 11
13 13 13 13 13 12 12 12 12 12 12 12 12 12 12 12 12 12 11 11 11 11 11 11 11 11 11 11 11 11 11 11 11 10 10 11 11 11 10 10 10 10 10
13 13 13 12 12 12 12 12 12 12 12 12 12 12 12 12 12 11 11 11 11 11 11 11 11 11 11 11 11 10 10 10 10 10 10 10 10 10 10 10 10 10 10
13 12 12 12 12 12 12 12 11 11 11 11 11 11 11 11 11 11 11 11 11 11 11 11 11 11 11 11 10 10 10 10 10 10 10 10 10 10 10 10 10 9 10
12 12 12 12 12 11 11 11 11 11 11 11 11 11 11 11 11 10 10 10 10 10 10 10 10 10 10 10 10 10 10 10 10 9 9 9 9 9 9 9 9 9 9
12 12 12 11 11 11 11 11 11 10 10 10 10 10 10 10 10 10 10 10 10 10 10 10 10 10 10 10 9 10 10 9 9 9 9 9 9 9 9 9 9 9 8
12 11 11 11 11 10 10 10 10 10 10 10 10 10 10 10 10 10 10 9 9 9 9 9 9 9 9 9 9 9 9 9 9 9 9 9 9 9 8 8 8 8 8
11 11 11 10 10 10 10 10 10 10 9 9 9 9 9 9 9 9 9 9 9 9 9 9 9 9 9 9 9 9 9 9 8 8 8 8 8 8 8 8 8 8 8
11 10 10 10 10 10 9 9 9 9 9 9 9 9 9 9 9 9 9 9 9 9 9 9 9 9 8 8 8 8 8 8 8 8 8 8 8 8 7 7 7 7 7
10 10 10 10 9 9 9 9 9 9 8 8 8 8 8 8 8 8 8 8 8 8 8 8 8 8 8 8 8 8 7 7 7 7 7 7 7 7 7 7 7 7 7
10 9 9 9 9 9 9 9 8 8 8 8 8 8 8 8 8 8 8 8 8 7 7 7 7 7 7 7 7 7 7 7 7 7 7 7 7 6 6 6 6 6 6
9 9 9 9 9 8 8 8 8 8 8 8 7 7 7 7 7 7 7 7 7 7 7 7 7 7 7 7 7 7 6 6 6 6 6 6 6 6 6 6 6 6 6
9 9 8 8 8 8 8 8 8 7 7 7 7 7 7 7 7 7 7 7 6 6 6 6 6 6 6 6 6 6 6 6 6 5 6 6 6 6 6 5 5 5 5
8 8 8 8 8 8 8 8 7 7 7 7 7 7 7 7 7 6 6 6 6 6 6 6 6 6 6 6 5 5 6 5 5 5 5 5 5 5 5 5 5 5 5
8 8 8 8 8 7 7 7 7 7 7 7 7 6 6 6 6 6 6 6 6 6 5 5 5 5 5 5 5 5 5 5 5 5 5 5 4 4 4 4 4 4 4
7 7 7 7 7 7 7 6 6 6 6 6 6 6 6 6 6 6 5 5 5 5 5 5 5 5 5 5 5 5 5 5 4 4 4 4 4 4 4 4 4 4 4
7 7 7 7 6 6 6 6 6 6 6 5 6 6 5 5 5 5 5 5 5 5 5 5 5 4 4 4 4 4 4 4 4 4 4 4 4 4 4 4 3 3 3
7 7 6 6 6 6 6 5 5 5 5 5 5 5 5 5 5 5 5 4 4 4 4 4 4 4 4 4 4 4 4 4 4 4 4 3 3 3 3 3 3 3 3
6 6 6 6 6 5 5 5 5 5 5 5 5 4 4 4 4 4 4 4 4 4 4 4 4 4 4 4 4 4 4 3 3 3 3 3 3 3 3 3 3 3 2
6 6 6 5 5 5 5 5 4 4 4 4 4 4 4 4 4 4 4 4 4 4 4 4 4 4 4 4 4 3 3 3 3 3 3 3 3 3 3 2 2 2 2
6 5 5 5 5 5 4 4 4 4 4 4 4 4 4 4 4 3 3 3 3 4 4 4 4 4 4 4 3 3 3 3 3 3 2 2 2 2 2 2 2 2 2
5 5 5 5 4 4 4 4 4 4 4 3 3 3 3 3 3 3 3 3 3 3 3 3 3 3 3 3 3 3 3 3 2 2 2 2 2 2 2 2 2 2 2
5 5 5 4 4 4 4 4 4 3 3 3 3 3 3 3 3 3 3 3 3 3 3 3 3 3 3 3 3 2 2 2 2 2 2 2 2 2 1 1 1 1 1
Wind_Speed
3 3 3 3 3 3 3 3 3 2 2 2 2 2 2 2 2 2 2 1 1 1 0 1 1 1 1 1 1 1 1 1 2 1 1 1 0 0 1 1 1 1 2
3 2 2 2 2 3 2 2 2 2 2 2 2 2 2 2 2 3 3 2 2 2 1 1 1 1 1 1 2 2 2 2 2 2 1 1 1 1 0 1 1 1 1
3 3 2 2 2 3 2 2 2 2 2 2 2 2 3 3 3 3 3 3 3 2 2 2 2 1 1 1 2 2 2 1 1 2 1 1 1 0 1 1 1 2 2
3 3 3 3 3 3 2 2 2 2 2 2 2 2 2 2 2 3 3 3 2 2 2 2 2 2 3 2 2 2 2 2 2 1 1 0 0 0 1 0 1 2 2
4 3 3 3 2 2 2 1 1 1 1 2 1 1 1 2 2 3 3 3 2 2 2 2 2 2 2 2 2 3 3 3 2 1 1 1 1 1 1 1 1 1 2
4 4 3 2 2 2 2 2 2 1 1 0 1 1 1 1 2 3 3 3 3 2 2 2 2 2 2 2 2 3 4 4 4 3 2 2 3 2 2 2 1 0 1
4 4 3 3 3 3 3 2 2 2 1 1 1 1 1 2 2 2 3 2 2 2 2 2 2 1 1 1 2 2 2 2 4 4 4 4 3 4 3 3 3 2 2
4 4 3 3 3 2 2 2 2 1 1 1 1 1 1 2 2 2 2 2 2 1 2 2 2 1 1 2 3 2 1 1 2 2 3 4 3 3 4 4 4 2 0
4 4 4 4 4 3 3 3 2 2 1 1 2 2 2 2 2 1 1 2 1 1 1 1 1 2 1 2 3 2 1 1 0 1 1 1 1 3 4 3 2 2 1
5 5 4 4 4 4 4 3 2 2 2 1 1 2 2 2 2 1 1 2 1 1 1 1 1 1 1 1 3 3 3 2 0 0 1 2 1 2 4 3 3 2 2
4 3 3 3 3 3 2 2 2 2 2 1 1 2 2 2 2 2 2 2 2 2 1 1 1 1 1 1 2 3 4 2 2 1 1 1 2 1 1 1 2 3 2
3 3 3 3 3 2 3 2 2 2 2 2 1 1 2 2 2 2 3 3 3 3 3 2 2 1 1 1 1 2 1 2 2 1 1 1 1 1 1 1 2 2 2
3 3 2 2 2 2 3 3 2 2 2 2 2 2 2 2 2 3 3 4 4 3 2 2 2 1 0 0 1 1 2 2 2 1 1 2 2 2 1 0 0 0 1
3 3 2 2 1 1 2 3 3 3 3 3 2 3 2 2 2 2 2 2 2 2 1 1 0 1 1 1 1 0 1 2 2 2 2 1 0 0 1 1 1 1 0
4 3 2 2 2 1 1 2 3 4 4 4 4 4 3 3 4 4 3 2 3 3 2 1 1 1 0 0 0 0 1 1 1 1 1 1 0 0 1 1 1 1 1
4 3 3 2 2 2 1 1 2 3 3 4 4 3 3 4 3 3 3 3 3 4 3 1 1 1 2 2 2 1 1 1 2 2 1 2 2 2 1 1 1 1 2
5 4 3 2 2 2 2 2 1 2 1 2 3 3 3 3 3 2 3 3 3 5 2 2 2 3 3 2 2 3 2 3 2 2 2 2 2 2 1 1 1 1 2
4 4 3 3 2 2 2 2 2 2 1 2 2 3 3 3 3 3 3 3 2 2 2 3 3 3 3 3 3 3 2 2 2 2 2 2 2 2 2 2 2 3 3
4 3 3 2 2 2 2 2 2 2 2 2 2 2 2 3 2 2 3 2 3 3 3 3 3 3 3 3 3 3 3 3 3 3 3 3 3 3 3 3 3 4 3
4 5 3 2 2 2 2 2 2 2 2 2 3 3 1 1 1 2 2 3 3 3 4 4 4 4 4 4 3 3 3 3 3 3 3 3 3 3 4 4 4 4 4
3 4 4 2 2 2 2 3 3 3 3 3 4 4 3 3 3 3 3 3 4 4 4 4 4 4 4 4 4 4 4 4 4 4 4 4 3 4 4 4 4 4 4
3 3 3 3 3 3 3 3 3 3 4 4 3 3 4 3 3 4 4 4 4 5 4 4 4 5 5 5 5 4 5 5 5 4 4 4 4 4 4 4 4 4 4
3 3 3 3 3 3 3 2 3 3 3 4 4 3 3 3 3 4 4 4 4 4 4 4 5 5 4 5 5 5 6 6 6 6 5 5 5 5 4 5 5 5 5
3 4 4 3 2 2 3 3 3 3 3 3 3 3 3 3 3 4 4 3 4 4 4 4 5 6 6 5 5 6 7 7 7 6 7 6 6 5 5 5 6 6 6
3 3 3 3 3 3 3 3 3 3 3 2 2 2 2 3 3 3 3 4 4 4 5 5 5 6 7 8 7 7 9 10 9 7 6 6 6 6 6 6 6 6 6
3 3 3 3 3 3 3 3 3 3 3 3 3 3 3 3 3 3 3 3 3 4 4 4 5 6 7 7 8 9 9 10 10 10 7 5 6 6 6 6 7 6 6
Wind_Direction
202 204 200 203 198 188 192 206 206 196 193 202 209 205 208 212 193 175 195 182 183 236 271 230 254 217 176 177 162 154 158 151 197 273 282 300 327 344 29 44 1 7 356
195 184 191 188 178 183 198 210 202 201 198 209 206 198 210 213 199 190 197 188 197 225 249 237 282 232 188 192 173 177 183 178 171 207 271 298 269 233 344 16 16 11 353
172 167 172 175 171 189 202 203 197 204 211 208 187 200 220 220 208 205 193 191 200 223 237 226 248 217 225 227 191 188 192 176 151 169 215 298 317 331 40 7 3 360 352
172 173 187 201 198 202 201 192 201 194 198 211 202 208 217 215 205 200 187 187 198 224 242 237 236 222 224 216 201 197 176 152 138 136 171 233 306 328 108 26 345 347 344
173 181 206 211 198 195 193 195 190 174 197 220 199 200 195 204 203 186 186 186 191 222 255 260 248 242 233 207 197 187 169 162 156 153 187 198 231 195 211 209 247 319 333
176 193 205 197 192 197 198 184 168 180 209 220 222 198 210 237 215 190 179 184 190 207 244 270 271 271 265 211 184 165 161 169 180 175 195 212 228 222 200 200 187 211 280
185 191 192 189 192 204 197 181 187 199 175 177 248 220 240 250 239 215 189 169 184 217 234 255 279 288 277 202 182 153 162 169 175 178 190 215 215 213 188 197 201 199 225
189 192 193 190 195 197 182 190 196 181 181 206 240 229 242 261 250 239 189 160 175 221 237 233 231 260 220 165 160 151 168 217 211 186 196 211 204 190 191 200 197 171 63
195 201 199 192 188 186 192 198 190 173 189 216 231 225 235 269 260 260 154 160 176 236 254 246 223 236 253 155 147 158 183 272 290 174 192 229 182 160 150 119 131 154 242
208 207 199 187 183 192 204 204 192 178 193 195 240 242 231 255 270 249 158 164 182 239 277 290 251 246 267 159 168 171 194 238 240 27 29 24 63 148 157 164 179 185 206
204 192 183 183 187 189 189 187 178 175 173 193 231 262 259 259 259 217 187 176 192 206 232 256 257 240 242 231 195 189 210 193 168 163 142 49 46 62 136 170 188 187 194
172 171 180 185 189 174 161 168 165 167 182 209 225 273 279 276 257 231 215 210 194 191 223 236 238 225 214 222 210 214 178 124 128 139 149 211 231 257 261 239 227 224 223
156 175 191 187 179 171 171 175 173 181 194 217 220 241 271 281 279 267 245 229 211 199 215 216 220 214 202 214 262 187 137 134 143 158 208 239 239 233 243 297 283 315 352
167 184 187 180 184 177 181 184 187 197 205 214 222 236 252 264 262 252 238 233 216 211 222 221 112 80 70 53 35 90 130 164 166 192 222 244 265 197 219 233 227 216 256
174 189 196 195 194 199 212 218 212 218 210 213 221 220 219 241 252 230 195 197 195 188 147 93 70 60 54 14 0 49 132 134 172 208 199 201 221 228 252 232 201 185 205
177 194 200 199 199 197 209 285 266 233 239 232 223 218 232 239 260 239 212 198 182 161 136 144 197 204 218 224 229 230 206 210 219 212 208 211 219 224 240 246 210 201 227
181 194 198 196 195 203 209 216 268 298 274 232 229 231 235 238 234 220 200 183 165 153 155 192 214 221 229 226 222 220 229 231 219 212 218 221 222 227 231 238 233 239 248
184 195 193 195 199 207 216 224 218 221 263 289 274 253 244 237 231 218 183 139 151 171 199 211 222 227 230 227 224 223 226 225 216 218 223 221 215 218 226 233 227 229 241
183 192 193 191 200 206 209 213 216 221 231 255 283 283 257 245 234 213 166 171 195 214 221 225 228 230 234 230 226 221 216 220 221 216 222 222 218 216 228 233 231 235 237
194 201 196 186 191 198 203 210 226 233 239 245 251 254 243 184 217 228 212 203 204 218 223 225 227 228 229 227 223 218 220 224 223 224 226 227 227 223 228 229 229 231 236
193 199 201 199 201 209 214 220 227 231 233 242 252 244 215 205 213 221 225 223 221 224 225 227 229 230 228 223 220 221 223 228 226 225 225 229 228 232 234 230 230 233 238
190 196 194 199 210 217 226 230 232 234 239 248 258 251 228 217 222 228 232 235 234 232 228 224 228 230 224 218 218 221 228 231 229 224 225 227 229 232 233 235 237 235 236
187 192 196 207 213 217 226 231 236 237 242 242 240 241 236 231 233 237 241 240 236 239 236 230 234 236 233 230 226 223 228 233 233 226 224 226 228 229 230 232 236 239 239
188 194 197 205 214 219 226 238 243 246 245 244 236 231 231 235 241 245 246 246 244 244 241 238 237 238 237 237 242 241 243 245 240 233 224 225 226 229 229 233 236 238 237
187 195 200 207 216 223 230 239 243 244 239 242 235 233 239 243 246 252 252 247 248 249 249 246 244 243 244 246 248 251 250 248 247 244 233 225 226 227 229 233 236 239 238
194 198 202 209 218 221 224 232 240 243 242 243 236 231 235 243 248 250 251 254 254 254 256 254 253 252 256 258 258 258 256 253 250 247 238 229 224 228 228 231 232 233 235
Height
1517 1518 1519 1519 1520 1521 1522 1523 1523 1524 1525 1525 1525 1525 1526 1526 1526 1526 1526 1526 1526 1526 1526 1526 1526 1526 1526 1526 1526 1527 1527 1527 1527 1527 1527 1527 1528 1528 1528 1528 1529 1528 1528
1515 1515 1516 1517 1518 1519 1519 1520 1521 1521 1522 1523 1523 1523 1524 1524 1524 1524 1524 1524 1524 1524 1524 1524 1524 1524 1524 1524 1524 1524 1524 1525 1525 1525 1525 1525 1525 1526 1526 1526 1527 1527 1527
1513 1513 1514 1514 1515 1516 1517 1517 1518 1519 1519 1520 1520 1520 1521 1521 1522 1522 1522 1522 1521 1521 1521 1521 1521 1521 1521 1521 1521 1521 1522 1522 1522 1522 1522 1523 1523 1523 1524 1524 1524 1525 1525
1510 1511 1511 1511 1512 1513 1514 1514 1515 1515 1516 1517 1517 1518 1518 1518 1519 1519 1519 1519 1519 1519 1519 1519 1518 1518 1518 1518 1518 1518 1519 1519 1520 1520 1520 1520 1520 1521 1521 1521 1521 1522 1522
1507 1508 1508 1509 1510 1510 1511 1511 1512 1512 1513 1513 1514 1514 1515 1515 1515 1516 1516 1516 1516 1516 1516 1516 1515 1515 1515 1515 1515 1515 1516 1516 1517 1517 1517 1517 1517 1518 1518 1519 1519 1519 1519
1504 1505 1506 1506 1507 1507 1508 1508 1509 1509 1510 1510 1510 1511 1511 1511 1512 1512 1512 1513 1513 1513 1512 1512 1512 1512 1512 1512 1512 1513 1513 1513 1513 1514 1514 1514 1514 1515 1515 1516 1516 1516 1516
1501 1502 1503 1503 1503 1504 1505 1505 1505 1506 1506 1507 1507 1507 1507 1508 1508 1509 1509 1509 1509 1509 1509 1509 1509 1509 1509 1509 1509 1510 1510 1510 1511 1511 1511 1511 1512 1512 1512 1513 1513 1513 1513
1497 1498 1499 1500 1500 1501 1501 1502 1502 1503 1503 1503 1503 1504 1504 1504 1505 1505 1505 1506 1506 1506 1506 1506 1506 1506 1506 1506 1506 1506 1507 1507 1508 1508 1508 1509 1509 1510 1510 1510 1509 1510 1510
1494 1494 1495 1496 1497 1497 1498 1498 1499 1499 1499 1500 1500 1500 1501 1501 1502 1502 1502 1502 1502 1502 1502 1502 1502 1503 1503 1503 1503 1503 1503 1504 1505 1505 1505 1506 1506 1506 1506 1506 1506 1506 1506
1490 1491 1492 1493 1493 1494 1494 1495 1495 1496 1496 1496 1497 1497 1497 1498 1498 1498 1499 1499 1498 1499 1499 1499 1499 1499 1500 1500 1499 1499 1500 1501 1501 1502 1502 1502 1503 1503 1503 1503 1503 1503 1503
1487 1488 1489 1489 1490 1491 1491 1492 1492 1492 1492 1493 1493 1493 1494 1494 1494 1494 1495 1495 1495 1495 1495 1495 1495 1496 1496 1496 1496 1496 1497 1498 1498 1498 1499 1499 1499 1499 1499 1500 1500 1500 1500
1484 1485 1486 1486 1487 1487 1488 1488 1489 1489 1489 1489 1489 1489 1490 1490 1490 1490 1491 1491 1491 1491 1491 1491 1492 1492 1493 1493 1493 1493 1494 1494 1494 1495 1495 1495 1495 1495 1496 1496 1497 1497 1497
1481 1482 1482 1483 1483 1484 1484 1485 1485 1485 1486 1485 1486 1485 1485 1486 1486 1487 1487 1487 1487 1487 1487 1488 1488 1489 1489 1489 1489 1490 1490 1490 1491 1491 1491 1491 1492 1492 1492 1493 1493 1493 1493
1477 1478 1479 1480 1480 1481 1481 1481 1482 1482 1482 1482 1482 1482 1482 1482 1483 1483 1483 1483 1483 1483 1484 1484 1484 1485 1485 1485 1485 1486 1486 1487 1487 1487 1488 1488 1488 1488 1488 1488 1488 1488 1488
1474 1475 1476 1476 1477 1477 1478 1478 1478 1478 1479 1479 1479 1479 1479 1479 1479 1480 1479 1479 1480 1480 1480 1480 1480 1480 1481 1481 1482 1482 1482 1483 1483 1484 1484 1484 1484 1484 1484 1484 1484 1484 1484
1470 1471 1472 1473 1473 1474 1474 1474 1474 1475 1475 1475 1476 1476 1475 1476 1476 1476 1476 1476 1476 1477 1477 1476 1476 1476 1477 1477 1478 1478 1478 1479 1479 1480 1480 1480 1480 1480 1480 1480 1480 1480 1480
1467 1468 1469 1469 1470 1470 1470 1470 1470 1471 1471 1471 1472 1472 1472 1472 1472 1472 1472 1472 1473 1473 1472 1472 1472 1473 1473 1474 1474 1474 1474 1475 1475 1475 1475 1476 1476 1476 1476 1476 1476 1476 1476
1464 1465 1466 1466 1466 1467 1467 1467 1467 1466 1466 1466 1467 1468 1468 1468 1468 1468 1469 1469 1468 1468 1468 1468 1468 1469 1469 1470 1470 1470 1470 1471 1471 1471 1471 1471 1472 1472 1472 1472 1471 1471 1471
1461 1462 1462 1463 1463 1463 1463 1464 1463 1463 1463 1463 1463 1463 1464 1464 1464 1464 1464 1464 1463 1464 1464 1464 1464 1465 1465 1465 1466 1466 1466 1466 1467 1467 1467 1467 1467 1467 1467 1467 1467 1467 1467
1458 1459 1459 1459 1459 1460 1460 1460 1459 1459 1459 1459 1459 1459 1459 1459 1459 1459 1459 1459 1459 1459 1460 1460 1460 1460 1461 1461 1461 1461 1462 1462 1462 1462 1462 1462 1462 1462 1463 1463 1463 1463 1463
1454 1455 1455 1456 1456 1456 1456 1456 1456 1455 1455 1454 1454 1454 1455 1455 1454 1455 1454 1454 1454 1455 1455 1455 1456 1456 1456 1456 1456 1456 1456 1457 1457 1457 1457 1457 1457 1458 1458 1458 1458 1458 1458
1451 1451 1451 1452 1452 1452 1452 1452 1451 1451 1450 1450 1449 1450 1450 1450 1450 1450 1450 1450 1450 1450 1451 1451 1451 1451 1451 1451 1451 1451 1451 1451 1451 1452 1452 1452 1452 1452 1453 1453 1453 1453 1453
1447 1447 1447 1448 1448 1448 1448 1447 1447 1446 1445 1445 1445 1445 1445 1445 1445 1445 1445 1445 1445 1446 1446 1446 1446 1446 1446 1446 1446 1446 1446 1446 1446 1446 1446 1447 1447 1447 1447 1447 1447 1447 1447
1443 1443 1443 1444 1444 1444 1444 1443 1442 1441 1441 1440 1440 1440 1440 1440 1440 1440 1440 1440 1441 1441 1441 1440 1440 1440 1440 1440 1440 1440 1440 1441 1441 1441 1441 1441 1441 1441 1441 1441 1442 1442 1442
1439 1440 1440 1440 1440 1440 1439 1439 1438 1437 1437 1436 1436 1436 1436 1436 1436 1436 1436 1436 1436 1435 1435 1435 1435 1435 1435 1434 1434 1434 1434 1435 1435 1435 1435 1435 1435 1435 1435 1435 1436 1436 1436
1436 1436 1436 1436 1436 1436 1435 1435 1434 1433 1433 1433 1432 1432 1432 1432 1432 1432 1431 1431 1431 1430 1430 1430 1429 1429 1429 1428 1428 1428 1428 1428 1428 1429 1429 1428 1428 1429 1429 1429 1430 1430 1430